FDX81 KLAX-YSSY

Flight info

Callsign FDX81
Flight time N/A
Altitude 32000
Route SUMMR2 DINTY DCT 3221N12615W 3152N12737W 3058N12957W 2856N13403W 2643N13822W 2541N14017W 2232N14522W 2143N14632W/N0493F340 1836N15020W 1635N15219W 1358N15445W 1103N15804W 0727N16245W 0420N16651W 0114N17053W/N0490F360 0212S17514W 0342S17700W 0500S17827W 0703S17914E 0840S17725E 1126S17424E 1509S17012E/N0484F380 1846S16608E 2136S16306E 2142S16300E 2322S16119E 2510S15938E 2941S15557E DCT IFFEY DCT RIKNI N774 MARLN
Aircraft B77L/H-SDE1E2E3FGHIJ2J3J4J5M1RWXY/LB1D1

Departure

Time N/A
Airport Los Angeles International Airport (KLAX)

Arrival

Time 2026-05-05 08:42
Airport Sydney Kingsford Smith International Airport (YSSY)
Time Latitude Longitude Altitude Speed Heading
2026-05-05 08:28 -33.99020 151.62945 9785 ft 274 kts 276°
2026-05-05 08:28 -33.98785 151.60678 9411 ft 271 kts 276°
2026-05-05 08:28 -33.98552 151.58436 9064 ft 268 kts 276°
2026-05-05 08:28 -33.98323 151.56232 8846 ft 261 kts 276°
2026-05-05 08:29 -33.98100 151.54098 8664 ft 259 kts 276°
2026-05-05 08:29 -33.97877 151.51955 8479 ft 258 kts 276°
2026-05-05 08:29 -33.97654 151.49819 8300 ft 256 kts 276°
2026-05-05 08:30 -33.97209 151.45553 7943 ft 258 kts 276°
2026-05-05 08:30 -33.96983 151.43402 7754 ft 259 kts 276°
2026-05-05 08:30 -33.96756 151.41248 7564 ft 259 kts 276°
2026-05-05 08:30 -33.96531 151.39103 7381 ft 257 kts 277°
2026-05-05 08:31 -33.96013 151.37084 7025 ft 254 kts 297°
2026-05-05 08:31 -33.95081 151.35261 6601 ft 256 kts 301°
2026-05-05 08:31 -33.94104 151.33499 6209 ft 255 kts 301°
2026-05-05 08:31 -33.93156 151.31749 6053 ft 243 kts 300°
2026-05-05 08:32 -33.92274 151.30072 5928 ft 231 kts 299°
2026-05-05 08:32 -33.91446 151.28467 5712 ft 221 kts 299°
2026-05-05 08:32 -33.90648 151.26908 5400 ft 217 kts 298°
2026-05-05 08:32 -33.89861 151.25361 5045 ft 216 kts 298°
2026-05-05 08:33 -33.89045 151.23848 4685 ft 215 kts 309°
2026-05-05 08:33 -33.87830 151.22724 4175 ft 231 kts 339°
2026-05-05 08:33 -33.86266 151.22493 4106 ft 215 kts 360°
2026-05-05 08:33 -33.84843 151.22532 4127 ft 200 kts
2026-05-05 08:34 -33.83412 151.22632 3558 ft 212 kts
2026-05-05 08:34 -33.81998 151.22799 3364 ft 199 kts
2026-05-05 08:34 -33.80658 151.23003 3113 ft 189 kts
2026-05-05 08:34 -33.79383 151.23209 2930 ft 179 kts
2026-05-05 08:35 -33.78208 151.23472 2952 ft 170 kts 13°
2026-05-05 08:35 -33.77020 151.23827 3399 ft 174 kts 14°
2026-05-05 08:35 -33.75782 151.24159 4287 ft 193 kts 11°
2026-05-05 08:35 -33.74375 151.24496 5001 ft 217 kts 10°
2026-05-05 08:36 -33.72894 151.24489 5939 ft 209 kts 338°
2026-05-05 08:36 -33.71843 151.23527 6427 ft 186 kts 303°
2026-05-05 08:36 -33.71289 151.22083 6101 ft 193 kts 283°
2026-05-05 08:36 -33.71128 151.20488 5943 ft 193 kts 268°
2026-05-05 08:37 -33.71342 151.18900 5764 ft 194 kts 251°
2026-05-05 08:37 -33.71918 151.17415 5582 ft 197 kts 238°
2026-05-05 08:37 -33.72711 151.16084 5517 ft 194 kts 231°
2026-05-05 08:37 -33.73553 151.14889 5392 ft 187 kts 228°
2026-05-05 08:38 -33.74465 151.13789 5180 ft 184 kts 217°
2026-05-05 08:38 -33.75572 151.13079 4964 ft 181 kts 195°
2026-05-05 08:38 -33.76813 151.13076 4643 ft 182 kts 169°
2026-05-05 08:38 -33.78071 151.13433 4320 ft 186 kts 167°
2026-05-05 08:39 -33.79327 151.13838 4040 ft 187 kts 166°
2026-05-05 08:39 -33.80582 151.14223 3788 ft 185 kts 168°
2026-05-05 08:39 -33.81836 151.14552 3382 ft 185 kts 168°
2026-05-05 08:39 -33.83106 151.14855 2927 ft 186 kts 171°
2026-05-05 08:40 -33.84375 151.15107 2539 ft 183 kts 173°
2026-05-05 08:40 -33.85619 151.15302 2225 ft 181 kts 172°
2026-05-05 08:40 -33.86859 151.15589 1803 ft 178 kts 168°
2026-05-05 08:40 -33.88048 151.15922 1459 ft 179 kts 168°
2026-05-05 08:41 -33.89273 151.16235 1093 ft 179 kts 172°
2026-05-05 08:41 -33.90491 151.16525 719 ft 178 kts 167°
2026-05-05 08:41 -33.91678 151.16857 386 ft 172 kts 169°
2026-05-05 08:41 -33.92809 151.17126 103 ft 158 kts 168°
2026-05-05 08:42 -33.93793 151.17386 25 ft 132 kts 168°
2026-05-05 08:42 -33.94507 151.17563 29 ft 76 kts 167°
2026-05-05 08:42 -33.94923 151.17651 26 ft 57 kts 180°
2026-05-05 08:42 -33.95112 151.17620 27 ft 22 kts 197°
2026-05-05 08:43 -33.95148 151.17577 28 ft 0 kts 252°
2026-05-05 08:43 -33.95147 151.17551 27 ft 9 kts 288°
2026-05-05 08:43 -33.95043 151.17501 27 ft 22 kts 348°
2026-05-05 08:43 -33.94892 151.17465 26 ft 22 kts 347°
2026-05-05 08:44 -33.94742 151.17426 28 ft 22 kts 347°
2026-05-05 08:44 -33.94592 151.17386 31 ft 22 kts 346°
2026-05-05 08:44 -33.94443 151.17348 31 ft 22 kts 348°
2026-05-05 08:44 -33.94293 151.17312 28 ft 23 kts 346°
2026-05-05 08:45 -33.94135 151.17266 26 ft 18 kts 348°
2026-05-05 08:45 -33.94061 151.17247 30 ft 0 kts 349°
2026-05-05 08:46 -33.94059 151.17247 29 ft 3 kts 349°
2026-05-05 08:47 -33.93980 151.17229 27 ft 20 kts 349°
2026-05-05 08:47 -33.93836 151.17195 20 ft 22 kts 346°
2026-05-05 08:47 -33.93692 151.17154 26 ft 21 kts 346°
2026-05-05 08:47 -33.93546 151.17114 27 ft 22 kts 348°
2026-05-05 08:48 -33.93400 151.17078 26 ft 21 kts 347°
2026-05-05 08:48 -33.93279 151.16981 28 ft 21 kts 313°
2026-05-05 08:48 -33.93191 151.16942 27 ft 12 kts 350°
2026-05-05 08:48 -33.93106 151.16926 27 ft 12 kts 352°
2026-05-05 08:49 -33.93026 151.16895 28 ft 12 kts 307°
2026-05-05 08:49 -33.93041 151.16793 28 ft 13 kts 256°
2026-05-05 08:49 -33.93047 151.16763 28 ft 0 kts 257°